Flag for France Weather past 2 weeks in Perpignan, France

Now
72 °F

Passing clouds.


Feels Like: 75 °F
Forecast: 64 / 80 °F
Wind: 7 mph from West

Location: Perpignan Airport

Current Time: Sep 2, 2015 at 1:00:17 AM

Latest Report: Sep 1, 2015 at 11:30 PM


Visibility: N/A

Pressure: 30.04 "Hg

Humidity: 65%

Dew point: 59 °F

Location of PerpignanLocation

Historic Weather in Perpignan — Graph

°F

Perpignan temperature yesterday

Maximum temperature yesterday: 82 °F (at 3:30 PM)
Minimum temperature yesterday: 66 °F (at 4:00 AM)
Average temperature yesterday: 73 °F

Past Weeks' High & Low Weather Summary

 TemperatureHumidityPressure
High88 °F (Aug 20, 2:30 PM)100% (Aug 29, 7:30 AM)30.18 "Hg (Aug 29, 7:30 AM)
Low59 °F (Aug 25, 7:00 AM)25% (Aug 20, 1:30 PM)29.68 "Hg (Aug 23, 3:30 PM)
Average75 °F66%30.00 "Hg
* Reported Aug 17 11:00 PM — Sep 1 11:30 PM, Perpignan, Weather by CustomWeather, © 2015

Note: Actual official high and low records may vary slightly from our data, if they occured in-between our weather recording intervals... More about our weather records

Advertising

Perpignan weather history for previous 24 hours

 ConditionsComfort  
Time TempWeatherWind HumidityBarometerVisibility
11:30 PM
Tue, Sep 1
72 °FPassing clouds.7 mph65%30.04 "HgN/A
11:00 PM72 °FPartly cloudy.6 mph65%30.04 "HgN/A
10:30 PM73 °FPassing clouds.7 mph61%30.04 "HgN/A
10:00 PM73 °FPartly cloudy.10 mph61%30.04 "HgN/A
9:30 PM75 °FOvercast.6 mph57%30.04 "HgN/A
9:00 PM75 °FPartly sunny.6 mph54%30.04 "HgN/A
8:30 PM75 °FPartly sunny.7 mph57%30.04 "HgN/A
8:00 PM77 °FPartly sunny.9 mph54%30.01 "HgN/A
7:30 PM77 °FPartly sunny.7 mph54%30.01 "HgN/A
7:00 PM79 °FOvercast.15 mph48%30.01 "HgN/A
6:30 PM79 °FPartly sunny.14 mph48%30.01 "HgN/A
6:00 PM81 °FPassing clouds.12 mph45%30.01 "HgN/A
5:00 PM81 °FPassing clouds.17 mph42%30.01 "HgN/A
4:30 PM81 °FPassing clouds.17 mph42%30.01 "HgN/A
4:00 PM82 °FPassing clouds.15 mph40%30.01 "HgN/A
3:30 PM82 °FSunny.21 mph40%30.01 "Hg10 mi
3:00 PM81 °FSunny.20 mph42%30.04 "Hg10 mi
2:30 PM81 °FOvercast.18 mph42%30.04 "HgN/A
2:00 PM81 °FBroken clouds.18 mph45%30.04 "HgN/A
1:30 PM79 °FPartly sunny.13 mph51%30.04 "HgN/A
1:00 PM77 °FPassing clouds.14 mph54%30.07 "HgN/A
12:30 PM73 °FOvercast.18 mph61%30.07 "HgN/A
12:00 PM72 °FMostly cloudy.12 mph65%30.07 "HgN/A
11:30 AM72 °FOvercast.14 mph61%30.07 "HgN/A
11:00 AM72 °FLight rain. Broken clouds.15 mph69%30.07 "HgN/A
10:00 AM72 °FMore clouds than sun.14 mph73%30.04 "HgN/A
9:30 AM72 °FOvercast.10 mph73%30.01 "HgN/A
9:00 AM70 °FMostly cloudy.6 mph78%30.01 "HgN/A
8:30 AM70 °FPartly sunny.5 mph88%30.01 "HgN/A
8:00 AM68 °FClear.5 mph94%30.01 "Hg10 mi
7:30 AM66 °FClear.3 mph94%29.98 "Hg10 mi
7:00 AM66 °FMostly cloudy.3 mph94%29.98 "HgN/A
5:30 AM66 °FPartly cloudy.No wind94%29.98 "HgN/A
5:00 AM68 °FPartly cloudy.1 mph88%29.98 "HgN/A
4:30 AM68 °FPartly cloudy.6 mph88%29.98 "HgN/A
4:00 AM66 °FMild.7 mph94%29.95 "HgN/A
3:30 AM68 °FPartly cloudy.2 mph88%29.98 "HgN/A
3:00 AM68 °FLight rain. Passing clouds.2 mph88%30.01 "HgN/A
2:30 AM68 °FOvercast.6 mph88%29.98 "HgN/A
2:00 AM68 °FMostly cloudy.8 mph88%29.98 "HgN/A
1:30 AM68 °FPartly cloudy.12 mph88%29.95 "HgN/A
1:00 AM70 °FMostly cloudy.10 mph83%29.98 "HgN/A
Weather by CustomWeather, © 2015

See weather overviewHow to use our weather pages